Weather Roundup
Issued by NWS Chicago, IL

Home | Current Version | Previous Version | Text Only | Print | Product List | Glossary Off
Versions: 1 2 3 4 5 6 7 8 9 10 11 12 13 14 15 16 17 18 19 20 21 22 23 24 25 26 27 28 29 30 31 32 33 34 35 36 37 38 39 40 41 42 43 44 45 46 47 48 49 50

000
NZUS59 KLOT 270608
HRRLOT

CHICAGO AREA WEATHER ROUNDUP
NATIONAL WEATHER SERVICE CHICAGO/ROMEOVILLE IL
100 AM CDT FRI MAY 27 2016

NOTE: "FAIR" INDICATES FEW OR NO CLOUDS BELOW 12,000 FEET WITH NO
SIGNIFICANT WEATHER AND/OR OBSTRUCTIONS TO VISIBILITY.

* THESE STATIONS ARE NOT UNDER NWS QUALITY CONTROL. THEY ALSO MAY NOT
  REPORT WEATHER SUCH AS PRECIPITATION OR FOG.

ILZ005-006-012>014-019>023-270700-
NORTHEAST ILLINOIS

CITY           SKY/WX    TMP DP  RH WIND       PRES   REMARKS
OHARE          CLOUDY    74  67  78 SW9       29.88R
6HR MIN TEMP:  72; 6HR MAX TEMP:  81;

MIDWAY         CLOUDY    74  66  76 S12       29.88F
6HR MIN TEMP:  74; 6HR MAX TEMP:  84;

AURORA         MOCLDY    72  67  84 S6        29.88F
6HR MIN TEMP:  72; 6HR MAX TEMP:  82;

LANSING*       MOCLDY    69  64  84 S8        29.91S
JOLIET*        CLOUDY    73  68  85 S3        29.90S
WAUKEGAN       MOCLDY    65  61  87 CALM      29.86F
6HR MIN TEMP:  64; 6HR MAX TEMP:  80;

DUPAGE AIRPORT CLOUDY    72  65  78 S5        29.88S
6HR MIN TEMP:  70; 6HR MAX TEMP:  81;

WHEELING       CLOUDY    74  66  76 S9        29.88S
6HR MIN TEMP:  70; 6HR MAX TEMP:  82;

KANKAKEE*      CLOUDY    67  64  89 S8        29.92S
MORRIS*        CLOUDY    73  67  81 S7        29.88S
LEWIS AIRPORT* MOCLDY    71  65  82 S9        29.89S
$$

WIZ051-052-058>065-066-070>072-270700-
SOUTHEAST WISCONSIN

CITY           SKY/WX    TMP DP  RH WIND       PRES   REMARKS
MILWAUKEE      MOCLDY    66  60  81 CALM      29.86F
6HR MIN TEMP:  64; 6HR MAX TEMP:  83;

KENOSHA*       MOCLDY    66  62  87 CALM      29.87F
RACINE*        MOCLDY    69  59  70 CALM      29.88F
BURLINGTON     PTCLDY    62  60  93 CALM      29.87S
WAUKESHA       PTCLDY    63  57  82 CALM      29.88F
$$

INZ001>003-010>013-019-020-270700-
NORTHWEST INDIANA

CITY           SKY/WX    TMP DP  RH WIND       PRES   REMARKS
GARY*          CLOUDY    73  72  96 S6        29.90S
6HR MIN TEMP:  73; 6HR MAX TEMP:  85;

MICHIGAN CITY* NOT AVBL
RENSSELAER*    NOT AVBL
VALPARAISO     CLOUDY    69  64  84 S8        29.93S
$$

LMZ740>746-270700-
SOUTHERN LAKE MICHIGAN

STATION/POSITION TIME  SKY/WX   TEMP WIND        PRES    VSBY
                                AIR  DIR/SP/G
                 (UTC)          (F)  (DEG/KT/KT) (MB)    (MI)
HARRISON CRIB    0520            73  200/ 19/ 20   N/A
BURNHAM HARBOR   0600            73  220/  8/ 16   N/A
CALUMET HARBOR   0500            74  180/ 11/ 14 1011.9F
BURNS HARBOR     0500            72  190/ 17/ 20 1012.9F
MICHIGAN CITY    0500            72  170/ 12/ 16   N/A
$$

ABBREVIATIONS USED IN REMARKS
   TC - TEMPERATURE IN CELSIUS
  WCI - WIND CHILL INDEX
   HX - HEAT INDEX
  VSB - VISIBILITY
$$




USA.gov is the U.S. government's official web portal to all federal, state and local government web resources and services.